SCP
0 1 0 -0 -0 -0 -0 -0 -0 -0 -0 -0 -0 -0 0 0 0 -0 -0 -0 -0 -0 -0 -0 -0 -0 -0 -0 -0 0 0 0 0 -0 0 0 0 0 0 0 0 0 0
0 0 -0 0 0 0 0 -0 -0 -0 -0 0 0 0 0 0 0 0 0 0 0 0 -0 -0 -0 -0 0 0 0 0 0 0 -0 -0 0 0 0 0 0 0 -0 0 0
0 0 0 0 0 0 0 0 0 0 0 0 0 0 0 0 0 0 0 0 0 0 0 0 -0 -0 0 -0 -0 -0 0 0 -0 -0 0 0 0 0 0 0 0 0 0
-0 0 0 -0 0 0 0 0 0 0 0 0 0 0 0 0 0 0 0 0 0 0 0 0 0 0 -0 -0 -0 -0 0 0 0 0 0 0 0 0 0 0 0 0 0
0 0 0 -0 0 0 0 0 0 0 0 0 0 0 0 0 0 0 0 0 0 0 0 0 0 0 -0 -0 -0 -0 0 0 0 0 0 0 0 0 0 0 0 0 0
0 0 0 -0 -0 -0 -0 0 0 0 0 0 0 0 0 0 0 0 0 0 0 0 0 0 0 0 -0 -0 -0 -0 0 0 -0 0 0 0 0 0 0 0 0 0 0
0 0 0 -0 -0 -0 -0 -0 0 -0 -0 0 0 0 0 0 0 0 0 0 0 0 0 0 0 0 -0 -0 -0 0 -0 -0 0 0 0 0 0 1 1 1 1 0 0
-0 -0 -0 -0 -0 -0 -0 -0 -0 -0 -0 0 0 0 0 0 0 0 0 0 0 0 0 0 0 0 0 0 0 0 0 0 0 0 0 0 0 1 1 1 1 1 0
-0 -0 -0 -0 -0 -0 -0 -0 -0 -0 -0 0 0 0 0 -0 -0 0 0 0 0 0 0 0 0 0 0 0 0 0 0 0 0 0 0 0 0 1 1 1 1 1 0
0 0 -0 -0 -0 -0 -0 -0 -0 -0 -0 -0 -0 -0 -0 -0 0 0 0 0 0 0 0 0 0 0 0 0 0 0 0 0 0 0 0 0 1 1 2 2 1 0 0
0 0 0 -0 -0 -0 -0 -0 -0 -0 -0 -0 -0 -0 -0 0 0 0 -0 -0 -0 -0 -0 -0 -0 -0 0 0 0 0 0 0 0 0 0 0 1 1 1 1 1 0 0
1 0 -0 -0 -0 -0 -0 -0 -0 -0 -0 -0 -0 -0 0 0 0 -0 -0 -0 -0 -0 -0 -0 -0 0 0 0 0 0 0 0 0 0 0 2 2 1 1 1 1 0 0
0 0 0 -0 -0 -0 -0 -0 -0 0 -0 0 -0 0 0 0 0 0 0 0 0 -0 0 0 0 0 0 0 0 0 0 0 0 0 0 2 1 0 1 1 1 0 0
0 -0 -0 -0 -0 -0 -0 -0 -0 0 0 0 0 -0 0 0 0 0 0 0 1 1 1 0 0 0 0 0 0 1 1 2 0 1 0 1 1 1 0 0 0 0 0
-0 -0 -0 -0 -0 0 0 0 0 0 0 0 0 0 0 0 0 0 0 1 1 1 1 1 0 0 0 0 1 1 1 1 1 1 0 1 0 0 0 0 0 -0 0
0 0 -0 -0 0 0 1 0 0 0 0 0 0 0 0 0 0 0 0 0 0 0 1 0 0 1 1 1 2 1 0 0 0 0 0 0 0 0 0 0 0 0 0
0 0 0 0 0 0 1 1 1 1 0 0 0 -0 0 0 0 0 1 0 0 0 0 1 2 2 1 0 0 0 0 0 0 0 0 0 0 0 0 0 0 0 0
0 0 0 1 1 1 1 1 1 1 1 0 1 0 0 1 1 2 2 0 0 1 1 1 0 0 0 0 0 0 0 0 0 0 0 0 0 0 0 0 0 0 -0
0 0 1 1 1 2 1 1 1 1 1 1 1 1 1 2 2 2 2 0 1 2 1 1 1 0 0 0 0 0 0 0 0 0 0 0 0 0 0 0 0 0 0
1 0 0 1 1 2 3 2 2 2 2 1 1 1 0 0 0 0 0 0 0 2 1 1 1 0 0 0 0 0 0 0 0 0 0 0 0 0 0 0 0 0 0
-0 1 1 2 4 3 4 4 4 2 2 2 1 0 0 1 0 1 -0 -0 0 1 1 1 0 0 0 0 0 0 0 0 0 0 0 0 0 0 0 0 0 0 0
0 1 1 2 2 4 4 4 4 3 4 2 0 0 1 1 0 0 0 -0 0 1 1 1 0 0 0 0 0 0 0 0 0 0 0 0 0 0 0 0 0 0 0
-0 0 1 2 3 2 2 3 5 4 4 1 0 0 0 0 0 0 0 0 0 1 2 2 1 0 0 0 0 0 0 0 0 0 0 0 0 0 0 0 0 0 0
0 0 2 1 2 2 2 1 1 1 2 1 0 0 0 0 0 0 0 0 0 1 1 2 1 1 0 0 0 0 0 0 0 0 0 0 -0 0 0 0 0 0 0
0 1 1 1 1 1 1 1 1 1 1 0 0 0 0 0 0 0 0 1 1 2 2 1 1 0 0 0 0 0 0 0 0 0 -0 0 0 0 0 0 0 0 0
1 1 1 1 1 1 2 1 0 0 1 1 1 1 0 1 0 0 0 0 1 1 1 0 0 0 0 0 0 0 0 0 0 0 0 -0 0 0 0 0 0 0 0
Wind_Speed_500mb
38 34 41 46 47 45 42 39 38 36 33 31 31 30 29 29 28 28 29 28 28 30 29 25 21 18 16 16 14 14 14 14 11 12 10 4 3 7 12 14 17 19 16
37 37 42 46 48 46 43 38 36 34 31 28 27 26 26 25 25 25 25 25 24 26 24 22 19 15 14 17 17 17 17 14 14 12 3 0 4 4 8 13 16 18 17
38 41 44 45 47 46 44 39 36 33 29 27 25 24 23 22 23 22 21 20 20 19 20 19 17 15 13 14 17 18 16 13 10 9 2 10 16 10 7 8 14 17 22
37 40 44 47 48 45 43 39 35 31 27 24 22 21 20 19 19 18 16 16 16 17 18 17 16 15 15 14 15 16 14 11 7 4 6 18 7 8 14 16 24 23 35
35 36 43 47 47 44 41 38 33 29 26 23 21 19 17 16 15 15 13 14 16 18 19 19 19 18 17 16 16 14 12 11 8 4 6 16 14 19 27 23 29 33 41
20 39 43 46 44 43 40 36 32 28 25 22 19 16 16 16 15 14 13 14 17 18 20 20 20 20 20 19 16 15 15 15 15 13 14 20 20 31 30 35 34 35 41
10 42 42 43 41 39 36 34 31 28 25 22 19 18 17 16 15 14 14 15 17 19 21 21 23 25 23 22 20 18 19 20 20 20 19 17 20 31 36 41 34 32 40
24 31 35 39 39 37 35 33 30 28 25 23 20 19 18 18 17 16 15 15 17 20 22 24 27 28 27 26 24 25 25 25 25 27 25 26 30 40 53 38 35 33 38
23 19 22 35 39 38 35 32 30 28 26 23 20 19 18 18 19 18 17 17 18 20 22 25 28 30 30 30 30 32 30 29 30 30 31 31 41 33 44 40 35 35 40
24 20 15 34 39 39 37 33 30 28 25 21 19 18 18 18 19 20 21 21 21 21 23 26 30 33 35 35 38 37 35 35 32 33 34 26 26 33 44 36 34 37 44
35 29 22 35 39 39 37 34 32 29 27 25 23 22 21 21 21 23 24 23 25 23 25 28 33 36 38 41 43 42 40 39 31 33 30 24 29 34 34 34 31 38 48
38 37 24 25 40 42 38 35 30 28 26 26 26 26 25 24 25 25 24 17 17 23 29 32 36 39 43 46 45 43 45 42 39 38 32 41 29 36 47 35 33 42 50
48 39 37 29 32 33 37 33 28 23 20 29 32 32 30 30 30 27 19 19 24 23 26 27 26 34 44 47 44 45 41 36 50 50 58 60 27 22 30 30 39 49 56
66 46 40 39 31 21 22 20 27 29 20 19 30 33 34 35 30 31 27 30 34 35 34 38 37 28 29 34 38 40 37 31 43 46 45 49 32 23 30 34 43 49 58
74 54 47 48 36 27 38 33 41 38 27 18 19 23 24 25 29 36 35 45 48 43 41 38 47 43 33 38 50 54 56 51 60 65 36 37 47 43 45 56 47 64 55
70 61 53 55 47 37 40 38 43 41 30 27 29 28 27 29 29 28 38 48 43 48 52 46 42 51 54 55 58 57 65 60 60 63 49 40 51 60 69 70 59 54 55
50 50 54 50 51 51 50 48 32 37 27 23 34 31 33 38 39 37 35 41 49 47 51 55 60 64 61 63 62 60 69 65 65 67 57 63 74 83 80 81 56 45 46
31 38 45 50 49 51 50 46 64 48 54 45 34 42 47 46 46 46 49 44 43 52 56 59 65 72 77 75 73 70 70 69 84 87 73 83 98 87 72 75 76 55 45
32 32 41 50 49 45 46 43 42 68 50 47 50 49 47 47 44 46 51 52 50 54 59 74 76 72 81 89 85 82 86 90 99 96 93 92 63 61 33 38 45 41 37
6 33 36 46 45 40 43 42 37 45 52 61 51 50 46 48 54 47 30 44 55 67 72 72 75 81 91 93 89 82 77 84 86 96 90 67 54 38 34 31 40 39 35
10 3 34 41 45 40 34 42 46 44 41 43 53 57 53 37 39 45 86 75 75 69 70 77 82 85 93 95 81 84 84 82 72 73 46 46 48 40 35 32 36 34 35
41 30 8 22 33 38 45 27 33 38 43 50 63 64 53 47 61 70 80 76 78 77 64 74 79 78 89 97 81 75 49 56 49 27 26 31 26 25 23 27 34 35 33
68 38 22 11 9 15 28 37 37 41 43 53 53 52 49 49 40 51 64 63 60 62 68 79 87 97 86 85 85 57 14 9 14 11 16 15 21 20 20 32 37 36 39
47 44 51 30 12 15 17 27 35 48 49 50 58 43 42 43 35 32 38 39 38 42 54 60 70 76 74 65 59 39 22 28 14 18 12 21 15 18 25 32 33 31 34
41 46 42 39 31 21 19 21 26 43 42 38 28 25 18 12 11 14 25 36 40 47 49 56 58 59 62 60 53 36 24 24 23 25 29 18 15 15 24 33 35 36 36
52 41 38 39 34 28 21 21 26 33 37 36 30 27 26 18 19 24 27 32 41 56 52 55 50 51 53 53 45 39 31 20 10 8 13 22 22 19 21 11 25 36 39
Wind_Direction_500mb
166 163 166 164 158 155 150 145 138 131 127 124 122 124 130 135 139 142 145 150 155 157 157 154 155 164 166 171 175 187 191 170 143 114 96 89 69 49 19 16 354 7 3
174 165 165 164 160 158 156 149 143 140 136 130 127 128 131 136 140 144 146 152 159 165 168 169 167 172 178 180 188 187 175 169 153 131 128 49 285 345 29 28 11 10 0
176 163 165 163 160 160 158 155 151 149 146 142 138 137 140 142 147 148 151 157 166 176 184 191 193 197 202 201 196 190 184 178 164 125 301 5 327 275 323 8 345 352 351
162 163 167 163 160 161 162 160 157 154 155 153 148 146 149 149 154 161 171 183 193 201 208 211 212 215 222 218 210 204 204 204 187 135 339 349 289 235 293 320 313 326 341
159 165 169 164 162 163 165 164 162 160 163 164 161 158 160 164 168 179 190 202 211 217 222 224 226 230 233 229 223 224 229 238 252 280 334 5 272 279 297 307 306 312 324
157 174 171 168 165 164 167 167 167 167 169 171 170 172 176 181 184 191 202 215 223 227 232 232 235 239 239 238 239 243 250 258 269 278 279 308 295 268 297 299 300 304 322
124 167 171 170 168 167 168 169 170 171 173 176 180 186 190 195 198 203 217 230 237 240 243 244 245 245 245 244 246 251 259 265 275 283 290 288 297 282 279 291 287 303 323
130 155 175 174 173 171 171 170 171 174 178 183 187 194 199 204 209 217 229 246 254 249 249 248 248 247 246 246 251 257 261 269 279 288 294 287 279 280 284 274 277 295 319
150 145 178 184 179 177 176 176 177 181 185 189 196 201 207 214 223 231 242 257 267 266 261 257 256 255 253 254 256 261 267 276 283 293 292 286 268 283 269 275 268 294 316
175 171 180 194 189 184 182 184 187 190 193 196 204 212 219 227 235 245 254 262 274 279 275 268 262 259 258 260 262 265 272 277 284 285 284 281 281 276 268 262 272 300 314
178 188 189 196 197 192 190 192 195 199 202 208 213 220 226 234 240 247 256 268 274 283 287 278 271 266 264 265 267 271 275 276 278 281 275 250 285 263 263 260 280 300 306
194 191 199 192 202 198 198 200 200 209 217 223 226 230 234 239 243 246 245 242 269 273 284 287 282 272 266 265 267 270 271 275 263 270 271 281 265 250 262 266 287 294 301
219 214 199 198 192 202 209 192 198 209 231 242 237 237 237 242 245 250 245 255 273 282 280 279 291 274 274 268 267 264 270 263 274 265 271 254 248 260 247 273 285 296 297
203 217 214 210 192 190 203 187 212 225 236 252 237 242 240 239 234 220 229 245 254 260 269 271 265 276 295 263 264 264 240 250 260 259 256 248 270 258 259 280 296 296 296
188 198 213 210 198 191 210 215 224 224 227 246 238 231 230 236 239 233 225 241 248 255 261 275 270 259 249 242 251 250 241 247 252 254 253 235 242 264 266 272 278 298 294
186 186 202 208 198 195 207 221 226 227 227 238 242 240 251 262 260 257 238 233 254 262 267 272 273 264 261 250 254 258 252 252 250 250 247 259 272 286 274 281 264 284 288
187 186 191 208 209 201 206 216 210 214 222 240 254 247 251 262 258 262 266 258 247 249 261 262 260 262 262 252 248 248 252 260 266 263 258 267 273 292 276 269 262 269 276
187 198 192 204 211 218 218 220 220 214 216 227 233 246 257 256 259 269 267 276 276 252 249 254 258 261 263 260 263 260 259 264 280 268 269 275 294 291 276 250 255 266 268
214 211 206 208 214 225 234 238 236 225 222 221 224 238 248 255 261 268 267 270 264 267 261 257 255 258 263 261 272 261 268 270 280 272 282 288 292 288 225 255 261 261 265
248 229 232 212 217 226 235 242 247 237 233 229 229 232 235 237 235 245 256 280 302 277 264 264 267 268 265 270 270 266 279 288 274 279 285 283 277 270 270 244 250 260 271
21 272 228 215 211 221 228 236 242 243 243 234 234 238 235 240 296 268 262 280 297 292 266 269 272 276 273 277 271 275 286 287 286 299 285 261 271 262 260 256 256 260 282
40 57 81 224 228 237 245 252 250 256 242 244 240 236 239 265 259 256 260 278 281 291 272 270 274 278 282 281 277 283 287 295 295 298 285 273 267 253 237 239 255 258 275
42 23 12 5 256 248 256 260 249 259 251 256 262 257 268 270 257 286 267 289 293 274 273 273 279 285 288 290 285 278 275 256 334 6 354 308 271 242 234 236 254 264 266
42 41 45 19 1 280 286 271 278 274 272 276 278 302 301 251 275 264 276 284 295 287 279 285 289 292 291 283 281 264 249 280 251 298 285 296 288 270 248 255 268 271 265
37 34 41 48 37 15 315 321 315 291 285 301 298 324 348 351 306 310 308 309 295 289 290 288 291 294 288 282 266 247 248 272 265 265 298 323 299 290 262 263 276 288 281
35 38 32 27 31 28 20 334 327 336 345 335 310 307 315 330 321 302 288 276 278 287 291 294 297 293 280 254 262 259 248 257 269 273 292 311 299 287 298 319 294 282 278
Wind_Speed_850mb
38 34 41 46 47 45 42 39 38 36 33 31 31 30 29 29 28 28 29 28 28 30 29 25 21 18 16 16 14 14 14 14 11 12 10 4 3 7 12 14 17 19 16
37 37 42 46 48 46 43 38 36 34 31 28 27 26 26 25 25 25 25 25 24 26 24 22 19 15 14 17 17 17 17 14 14 12 3 0 4 4 8 13 16 18 17
38 41 44 45 47 46 44 39 36 33 29 27 25 24 23 22 23 22 21 20 20 19 20 19 17 15 13 14 17 18 16 13 10 9 2 10 16 10 7 8 14 17 22
37 40 44 47 48 45 43 39 35 31 27 24 22 21 20 19 19 18 16 16 16 17 18 17 16 15 15 14 15 16 14 11 7 4 6 18 7 8 14 16 24 23 35
35 36 43 47 47 44 41 38 33 29 26 23 21 19 17 16 15 15 13 14 16 18 19 19 19 18 17 16 16 14 12 11 8 4 6 16 14 19 27 23 29 33 41
20 39 43 46 44 43 40 36 32 28 25 22 19 16 16 16 15 14 13 14 17 18 20 20 20 20 20 19 16 15 15 15 15 13 14 20 20 31 30 35 34 35 41
10 42 42 43 41 39 36 34 31 28 25 22 19 18 17 16 15 14 14 15 17 19 21 21 23 25 23 22 20 18 19 20 20 20 19 17 20 31 36 41 34 32 40
24 31 35 39 39 37 35 33 30 28 25 23 20 19 18 18 17 16 15 15 17 20 22 24 27 28 27 26 24 25 25 25 25 27 25 26 30 40 53 38 35 33 38
23 19 22 35 39 38 35 32 30 28 26 23 20 19 18 18 19 18 17 17 18 20 22 25 28 30 30 30 30 32 30 29 30 30 31 31 41 33 44 40 35 35 40
24 20 15 34 39 39 37 33 30 28 25 21 19 18 18 18 19 20 21 21 21 21 23 26 30 33 35 35 38 37 35 35 32 33 34 26 26 33 44 36 34 37 44
35 29 22 35 39 39 37 34 32 29 27 25 23 22 21 21 21 23 24 23 25 23 25 28 33 36 38 41 43 42 40 39 31 33 30 24 29 34 34 34 31 38 48
38 37 24 25 40 42 38 35 30 28 26 26 26 26 25 24 25 25 24 17 17 23 29 32 36 39 43 46 45 43 45 42 39 38 32 41 29 36 47 35 33 42 50
48 39 37 29 32 33 37 33 28 23 20 29 32 32 30 30 30 27 19 19 24 23 26 27 26 34 44 47 44 45 41 36 50 50 58 60 27 22 30 30 39 49 56
66 46 40 39 31 21 22 20 27 29 20 19 30 33 34 35 30 31 27 30 34 35 34 38 37 28 29 34 38 40 37 31 43 46 45 49 32 23 30 34 43 49 58
74 54 47 48 36 27 38 33 41 38 27 18 19 23 24 25 29 36 35 45 48 43 41 38 47 43 33 38 50 54 56 51 60 65 36 37 47 43 45 56 47 64 55
70 61 53 55 47 37 40 38 43 41 30 27 29 28 27 29 29 28 38 48 43 48 52 46 42 51 54 55 58 57 65 60 60 63 49 40 51 60 69 70 59 54 55
50 50 54 50 51 51 50 48 32 37 27 23 34 31 33 38 39 37 35 41 49 47 51 55 60 64 61 63 62 60 69 65 65 67 57 63 74 83 80 81 56 45 46
31 38 45 50 49 51 50 46 64 48 54 45 34 42 47 46 46 46 49 44 43 52 56 59 65 72 77 75 73 70 70 69 84 87 73 83 98 87 72 75 76 55 45
32 32 41 50 49 45 46 43 42 68 50 47 50 49 47 47 44 46 51 52 50 54 59 74 76 72 81 89 85 82 86 90 99 96 93 92 63 61 33 38 45 41 37
6 33 36 46 45 40 43 42 37 45 52 61 51 50 46 48 54 47 30 44 55 67 72 72 75 81 91 93 89 82 77 84 86 96 90 67 54 38 34 31 40 39 35
10 3 34 41 45 40 34 42 46 44 41 43 53 57 53 37 39 45 86 75 75 69 70 77 82 85 93 95 81 84 84 82 72 73 46 46 48 40 35 32 36 34 35
41 30 8 22 33 38 45 27 33 38 43 50 63 64 53 47 61 70 80 76 78 77 64 74 79 78 89 97 81 75 49 56 49 27 26 31 26 25 23 27 34 35 33
68 38 22 11 9 15 28 37 37 41 43 53 53 52 49 49 40 51 64 63 60 62 68 79 87 97 86 85 85 57 14 9 14 11 16 15 21 20 20 32 37 36 39
47 44 51 30 12 15 17 27 35 48 49 50 58 43 42 43 35 32 38 39 38 42 54 60 70 76 74 65 59 39 22 28 14 18 12 21 15 18 25 32 33 31 34
41 46 42 39 31 21 19 21 26 43 42 38 28 25 18 12 11 14 25 36 40 47 49 56 58 59 62 60 53 36 24 24 23 25 29 18 15 15 24 33 35 36 36
52 41 38 39 34 28 21 21 26 33 37 36 30 27 26 18 19 24 27 32 41 56 52 55 50 51 53 53 45 39 31 20 10 8 13 22 22 19 21 11 25 36 39
Wind_Direction_850mb
166 163 166 164 158 155 150 145 138 131 127 124 122 124 130 135 139 142 145 150 155 157 157 154 155 164 166 171 175 187 191 170 143 114 96 89 69 49 19 16 354 7 3
174 165 165 164 160 158 156 149 143 140 136 130 127 128 131 136 140 144 146 152 159 165 168 169 167 172 178 180 188 187 175 169 153 131 128 49 285 345 29 28 11 10 0
176 163 165 163 160 160 158 155 151 149 146 142 138 137 140 142 147 148 151 157 166 176 184 191 193 197 202 201 196 190 184 178 164 125 301 5 327 275 323 8 345 352 351
162 163 167 163 160 161 162 160 157 154 155 153 148 146 149 149 154 161 171 183 193 201 208 211 212 215 222 218 210 204 204 204 187 135 339 349 289 235 293 320 313 326 341
159 165 169 164 162 163 165 164 162 160 163 164 161 158 160 164 168 179 190 202 211 217 222 224 226 230 233 229 223 224 229 238 252 280 334 5 272 279 297 307 306 312 324
157 174 171 168 165 164 167 167 167 167 169 171 170 172 176 181 184 191 202 215 223 227 232 232 235 239 239 238 239 243 250 258 269 278 279 308 295 268 297 299 300 304 322
124 167 171 170 168 167 168 169 170 171 173 176 180 186 190 195 198 203 217 230 237 240 243 244 245 245 245 244 246 251 259 265 275 283 290 288 297 282 279 291 287 303 323
130 155 175 174 173 171 171 170 171 174 178 183 187 194 199 204 209 217 229 246 254 249 249 248 248 247 246 246 251 257 261 269 279 288 294 287 279 280 284 274 277 295 319
150 145 178 184 179 177 176 176 177 181 185 189 196 201 207 214 223 231 242 257 267 266 261 257 256 255 253 254 256 261 267 276 283 293 292 286 268 283 269 275 268 294 316
175 171 180 194 189 184 182 184 187 190 193 196 204 212 219 227 235 245 254 262 274 279 275 268 262 259 258 260 262 265 272 277 284 285 284 281 281 276 268 262 272 300 314
178 188 189 196 197 192 190 192 195 199 202 208 213 220 226 234 240 247 256 268 274 283 287 278 271 266 264 265 267 271 275 276 278 281 275 250 285 263 263 260 280 300 306
194 191 199 192 202 198 198 200 200 209 217 223 226 230 234 239 243 246 245 242 269 273 284 287 282 272 266 265 267 270 271 275 263 270 271 281 265 250 262 266 287 294 301
219 214 199 198 192 202 209 192 198 209 231 242 237 237 237 242 245 250 245 255 273 282 280 279 291 274 274 268 267 264 270 263 274 265 271 254 248 260 247 273 285 296 297
203 217 214 210 192 190 203 187 212 225 236 252 237 242 240 239 234 220 229 245 254 260 269 271 265 276 295 263 264 264 240 250 260 259 256 248 270 258 259 280 296 296 296
188 198 213 210 198 191 210 215 224 224 227 246 238 231 230 236 239 233 225 241 248 255 261 275 270 259 249 242 251 250 241 247 252 254 253 235 242 264 266 272 278 298 294
186 186 202 208 198 195 207 221 226 227 227 238 242 240 251 262 260 257 238 233 254 262 267 272 273 264 261 250 254 258 252 252 250 250 247 259 272 286 274 281 264 284 288
187 186 191 208 209 201 206 216 210 214 222 240 254 247 251 262 258 262 266 258 247 249 261 262 260 262 262 252 248 248 252 260 266 263 258 267 273 292 276 269 262 269 276
187 198 192 204 211 218 218 220 220 214 216 227 233 246 257 256 259 269 267 276 276 252 249 254 258 261 263 260 263 260 259 264 280 268 269 275 294 291 276 250 255 266 268
214 211 206 208 214 225 234 238 236 225 222 221 224 238 248 255 261 268 267 270 264 267 261 257 255 258 263 261 272 261 268 270 280 272 282 288 292 288 225 255 261 261 265
248 229 232 212 217 226 235 242 247 237 233 229 229 232 235 237 235 245 256 280 302 277 264 264 267 268 265 270 270 266 279 288 274 279 285 283 277 270 270 244 250 260 271
21 272 228 215 211 221 228 236 242 243 243 234 234 238 235 240 296 268 262 280 297 292 266 269 272 276 273 277 271 275 286 287 286 299 285 261 271 262 260 256 256 260 282
40 57 81 224 228 237 245 252 250 256 242 244 240 236 239 265 259 256 260 278 281 291 272 270 274 278 282 281 277 283 287 295 295 298 285 273 267 253 237 239 255 258 275
42 23 12 5 256 248 256 260 249 259 251 256 262 257 268 270 257 286 267 289 293 274 273 273 279 285 288 290 285 278 275 256 334 6 354 308 271 242 234 236 254 264 266
42 41 45 19 1 280 286 271 278 274 272 276 278 302 301 251 275 264 276 284 295 287 279 285 289 292 291 283 281 264 249 280 251 298 285 296 288 270 248 255 268 271 265
37 34 41 48 37 15 315 321 315 291 285 301 298 324 348 351 306 310 308 309 295 289 290 288 291 294 288 282 266 247 248 272 265 265 298 323 299 290 262 263 276 288 281
35 38 32 27 31 28 20 334 327 336 345 335 310 307 315 330 321 302 288 276 278 287 291 294 297 293 280 254 262 259 248 257 269 273 292 311 299 287 298 319 294 282 278